YB3RDW-13 Weather Reports


Display with metric or nautical units.
time (UTC)temp
F
wind
direction
speed
MPH
gust
MPH
rain 1hr
in
rain 24hr
in
rain mn
in
humidity
%
barometer
mb
20260506103659 87 289 2.0 2.0 0.00 0.00 0.00 67 1010.0
20260506103200 87 300 5.0 7.0 0.00 0.00 0.00 67 1009.0
20260506102658 87 298 6.0 7.0 0.00 0.00 0.00 66 1009.0
20260506102158 87 298 5.0 7.0 0.00 0.00 0.00 66 1009.0
20260506101657 88 309 8.0 10.0 0.00 0.00 0.00 65 1009.0
20260506101204 88 334 4.0 5.0 0.00 0.00 0.00 65 1009.0
20260506100659 88 324 4.0 6.0 0.00 0.00 0.00 64 1009.0
20260506100158 89 289 6.0 7.0 0.00 0.00 0.00 62 1009.0
20260506095657 89 144 7.0 9.0 0.00 0.00 0.00 61 1009.0
20260506095157 89 268 4.0 5.0 0.00 0.00 0.00 61 1009.0
20260506094657 89 262 5.0 7.0 0.00 0.00 0.00 61 1009.0
20260506094158 89 302 4.0 6.0 0.00 0.00 0.00 61 1009.0
20260506093657 89 297 6.0 7.0 0.00 0.00 0.00 61 1009.0
20260506093157 90 296 6.0 7.0 0.00 0.00 0.00 58 1009.0
20260506092658 90 237 3.0 3.0 0.00 0.00 0.00 58 1009.0
20260506092157 90 266 4.0 6.0 0.00 0.00 0.00 57 1009.0
20260506091657 90 313 9.0 10.0 0.00 0.00 0.00 57 1009.0
20260506091157 90 265 7.0 8.0 0.00 0.00 0.00 57 1009.0
20260506090700 90 274 5.0 6.0 0.00 0.00 0.00 57 1009.0
20260506090158 91 234 6.0 8.0 0.00 0.00 0.00 55 1009.0
20260506085657 91 291 5.0 8.0 0.00 0.00 0.00 57 1009.0
20260506085157 91 255 5.0 6.0 0.00 0.00 0.00 57 1009.0
20260506084657 91 287 5.0 7.0 0.00 0.00 0.00 57 1009.0
20260506084157 91 313 9.0 11.0 0.00 0.00 0.00 55 1009.0
20260506083658 91 299 7.0 8.0 0.00 0.00 0.00 55 1009.0
20260506083157 91 310 5.0 7.0 0.00 0.00 0.00 57 1009.0
20260506082657 91 323 7.0 8.0 0.00 0.00 0.00 57 1009.0
20260506082157 91 269 8.0 10.0 0.00 0.00 0.00 57 1009.0
20260506081658 91 220 7.0 8.0 0.00 0.00 0.00 57 1009.0
20260506081157 91 293 7.0 8.0 0.00 0.00 0.00 57 1009.0
20260506080658 91 275 7.0 8.0 0.00 0.00 0.00 56 1009.0
20260506080157 91 271 8.0 9.0 0.00 0.00 0.00 58 1009.0
20260506073158 92 279 9.0 10.0 0.00 0.00 0.00 56 1009.0
20260506072657 92 285 10.0 13.0 0.00 0.00 0.00 55 1009.0
20260506072157 91 320 9.0 9.0 0.00 0.00 0.00 55 1009.0
20260506071657 92 323 10.0 13.0 0.00 0.00 0.00 55 1009.0
20260506071157 92 300 9.0 10.0 0.00 0.00 0.00 54 1009.0
20260506070657 92 320 8.0 9.0 0.00 0.00 0.00 54 1009.0
20260506070157 92 294 8.0 9.0 0.00 0.00 0.00 55 1009.0
20260506062157 92 282 5.0 6.0 0.00 0.00 0.00 59 1009.0
20260506061658 92 306 7.0 8.0 0.00 0.00 0.00 60 1010.0
20260506061158 92 339 6.0 7.0 0.00 0.00 0.00 57 1010.0
20260506060657 92 277 8.0 9.0 0.00 0.00 0.00 56 1010.0
20260506060157 92 262 8.0 11.0 0.00 0.00 0.00 56 1010.0
20260506051158 91 271 10.0 10.0 0.00 0.00 0.00 59 1011.0
20260506050659 91 343 7.0 10.0 0.00 0.00 0.00 58 1011.0
20260506050157 91 284 9.0 9.0 0.00 0.00 0.00 58 1011.0
20260506044659 91 322 9.0 10.0 0.00 0.00 0.00 62 1011.0
20260506044158 91 315 7.0 8.0 0.00 0.00 0.00 63 1011.0
20260506043657 91 241 8.0 10.0 0.00 0.00 0.00 61 1011.0
20260506043157 92 275 8.0 8.0 0.00 0.00 0.00 60 1011.0
20260506042657 91 48 5.0 7.0 0.00 0.00 0.00 62 1011.0
20260506042157 91 291 7.0 10.0 0.00 0.00 0.00 62 1011.0
20260506041658 91 337 7.0 10.0 0.00 0.00 0.00 61 1011.0
20260506041158 91 314 9.0 10.0 0.00 0.00 0.00 61 1012.0
20260506040657 91 241 7.0 9.0 0.00 0.00 0.00 60 1012.0
20260506040158 91 201 3.0 5.0 0.00 0.00 0.00 59 1012.0
20260506035657 91 280 8.0 8.0 0.00 0.00 0.00 60 1012.0
20260506035157 90 307 8.0 9.0 0.00 0.00 0.00 61 1012.0
20260506034657 90 227 7.0 9.0 0.00 0.00 0.00 61 1012.0
20260506034158 90 253 4.0 6.0 0.00 0.00 0.00 61 1012.0
20260506033657 90 9 7.0 8.0 0.00 0.00 0.00 64 1012.0
20260506033157 90 349 5.0 7.0 0.00 0.00 0.00 63 1012.0
20260506032657 90 311 2.0 6.0 0.00 0.00 0.00 63 1012.0
20260506032158 91 342 8.0 9.0 0.00 0.00 0.00 63 1012.0
20260506031657 90 311 6.0 7.0 0.00 0.00 0.00 63 1012.0
20260506031158 91 332 7.0 9.0 0.00 0.00 0.00 62 1012.0
20260506030659 91 288 7.0 8.0 0.00 0.00 0.00 63 1012.0
20260506030157 90 347 7.0 9.0 0.00 0.00 0.00 63 1012.0
20260506025657 90 310 8.0 9.0 0.00 0.00 0.00 66 1013.0
20260506025157 89 277 5.0 6.0 0.00 0.00 0.00 67 1013.0
20260506024657 89 2 6.0 9.0 0.00 0.00 0.00 70 1013.0
20260506024157 90 270 7.0 7.0 0.00 0.00 0.00 68 1013.0
20260506023657 89 343 3.0 3.0 0.00 0.00 0.00 69 1013.0
20260506023157 90 165 4.0 5.0 0.00 0.00 0.00 69 1013.0
20260506022657 90 264 6.0 7.0 0.00 0.00 0.00 68 1013.0
20260506022157 89 228 4.0 6.0 0.00 0.00 0.00 69 1013.0
20260506021657 88 177 1.0 1.0 0.00 0.00 0.00 71 1013.0
20260506021157 88 10 5.0 6.0 0.00 0.00 0.00 72 1013.0
20260506020659 88 218 1.0 1.0 0.00 0.00 0.00 72 1013.0
20260506020158 89 297 6.0 7.0 0.00 0.00 0.00 71 1013.0
20260506015657 89 265 5.0 6.0 0.00 0.00 0.00 73 1013.0
20260506015157 88 158 1.0 1.0 0.00 0.00 0.00 74 1013.0
20260506014657 87 121 1.0 2.0 0.00 0.00 0.00 76 1013.0
20260506014157 87 219 3.0 3.0 0.00 0.00 0.00 76 1013.0
20260506013657 87 214 0.0 1.0 0.00 0.00 0.00 76 1013.0
20260506013157 88 25 1.0 2.0 0.00 0.00 0.00 76 1013.0
20260506012657 87 172 2.0 2.0 0.00 0.00 0.00 79 1013.0
20260506012158 86 177 1.0 2.0 0.00 0.00 0.00 81 1013.0
20260506011658 85 179 3.0 3.0 0.00 0.00 0.00 81 1013.0
20260506011157 85 123 1.0 1.0 0.00 0.00 0.00 81 1013.0
20260506010704 85 152 1.0 2.0 0.00 0.00 0.00 82 1013.0
20260506010158 85 151 1.0 1.0 0.00 0.00 0.00 83 1013.0
20260506005658 85 127 2.0 2.0 0.00 0.00 0.00 84 1013.0
20260506005158 85 150 1.0 2.0 0.00 0.00 0.00 83 1013.0
20260506004657 84 175 0.0 0.0 0.00 0.00 0.00 83 1013.0
20260506004157 84 150 1.0 1.0 0.00 0.00 0.00 84 1013.0
20260506003657 84 170 1.0 2.0 0.00 0.00 0.00 85 1013.0
20260506003157 83 172 0.0 0.0 0.00 0.00 0.00 87 1013.0
20260506002657 83 159 1.0 1.0 0.00 0.00 0.00 87 1013.0
20260506002157 82 159 0.0 0.0 0.00 0.00 0.00 89 1013.0
20260506001657 82 144 1.0 2.0 0.00 0.00 0.00 89 1013.0
20260506001158 81 123 1.0 2.0 0.00 0.00 0.00 90 1012.0
20260506000657 81 86 2.0 2.0 0.00 0.00 0.00 90 1012.0
20260506000158 81 167 1.0 1.0 0.00 0.00 0.00 91 1012.0
20260505235658 80 159 1.0 1.0 0.00 0.00 0.00 91 1012.0
20260505235158 80 114 2.0 2.0 0.00 0.00 0.00 91 1012.0
20260505234658 80 152 1.0 1.0 0.00 0.00 0.00 92 1012.0
20260505234157 80 155 0.0 0.0 0.00 0.00 0.00 93 1012.0
20260505233658 79 135 2.0 2.0 0.00 0.00 0.00 93 1012.0
20260505233157 79 130 2.0 2.0 0.00 0.00 0.00 94 1012.0
20260505232657 79 158 0.0 0.0 0.00 0.00 0.00 95 1012.0
20260505232157 78 147 1.0 1.0 0.00 0.00 0.00 95 1012.0
20260505231657 78 156 0.0 1.0 0.00 0.00 0.00 96 1012.0
20260505231157 78 155 0.0 0.0 0.00 0.00 0.00 96 1012.0
20260505230657 78 130 2.0 2.0 0.00 0.00 0.00 96 1012.0
20260505230158 78 156 0.0 0.0 0.00 0.00 0.00 96 1012.0
20260505225657 78 162 1.0 1.0 0.00 0.00 0.00 96 1012.0
20260505225157 78 133 0.0 0.0 0.00 0.00 0.00 96 1012.0
20260505224657 78 144 2.0 2.0 0.00 0.00 0.00 96 1012.0
20260505224157 78 147 0.0 0.0 0.00 0.00 0.00 96 1012.0
20260505223657 78 112 1.0 2.0 0.00 0.00 0.00 96 1012.0
20260505223157 78 131 0.0 0.0 0.00 0.00 0.00 96 1012.0
20260505222657 78 152 1.0 1.0 0.00 0.00 0.00 96 1012.0
20260505222157 78 145 1.0 1.0 0.00 0.00 0.00 96 1012.0
20260505221657 78 105 1.0 2.0 0.00 0.00 0.00 96 1012.0
20260505221158 78 150 0.0 0.0 0.00 0.00 0.00 96 1012.0
20260505220657 78 150 1.0 2.0 0.00 0.00 0.00 96 1012.0
20260505220157 78 136 2.0 2.0 0.00 0.00 0.00 96 1012.0
20260505215657 78 143 2.0 2.0 0.00 0.00 0.00 96 1012.0
20260505215157 78 141 1.0 2.0 0.00 0.00 0.00 96 1011.0
20260505214658 78 138 2.0 2.0 0.00 0.00 0.00 96 1011.0
20260505214157 78 153 1.0 1.0 0.00 0.00 0.00 96 1012.0
20260505213657 78 128 1.0 2.0 0.00 0.00 0.00 96 1012.0
20260505213157 78 139 0.0 0.0 0.00 0.00 0.00 96 1012.0
20260505212657 79 153 0.0 0.0 0.00 0.00 0.00 96 1012.0
20260505212157 79 142 0.0 0.0 0.00 0.00 0.00 95 1011.0
20260505211658 79 183 2.0 2.0 0.00 0.00 0.00 95 1012.0
20260505211158 79 130 2.0 2.0 0.00 0.00 0.00 95 1012.0
20260505210657 79 153 1.0 1.0 0.00 0.00 0.00 95 1012.0
20260505210157 79 141 2.0 2.0 0.00 0.00 0.00 95 1012.0
20260505205657 79 141 2.0 2.0 0.00 0.00 0.00 95 1011.0
20260505205158 79 153 0.0 0.0 0.00 0.00 0.00 95 1011.0
20260505204657 79 134 2.0 2.0 0.00 0.00 0.00 95 1012.0
20260505204158 79 111 2.0 2.0 0.00 0.00 0.00 95 1012.0
20260505203657 79 155 2.0 2.0 0.00 0.00 0.00 95 1012.0
20260505203157 79 146 1.0 2.0 0.00 0.00 0.00 95 1012.0
20260505202657 79 137 1.0 2.0 0.00 0.00 0.00 94 1012.0
20260505202157 79 142 2.0 2.0 0.00 0.00 0.00 94 1012.0
20260505201657 79 161 1.0 1.0 0.00 0.00 0.00 94 1011.0
20260505201158 79 156 0.0 0.0 0.00 0.00 0.00 94 1012.0
20260505200700 79 125 2.0 2.0 0.00 0.00 0.00 94 1011.0
20260505200201 79 159 0.0 0.0 0.00 0.00 0.00 94 1012.0
20260505195657 80 136 3.0 3.0 0.00 0.00 0.00 93 1012.0
20260505195159 80 126 1.0 2.0 0.00 0.00 0.00 93 1012.0
20260505194657 80 136 3.0 3.0 0.00 0.00 0.00 93 1011.0
20260505194158 80 133 3.0 3.0 0.00 0.00 0.00 93 1012.0
20260505193657 80 141 2.0 2.0 0.00 0.00 0.00 93 1012.0
20260505193158 80 100 3.0 5.0 0.00 0.00 0.00 93 1012.0
20260505192658 80 142 1.0 2.0 0.00 0.00 0.00 93 1012.0
20260505192157 80 121 3.0 3.0 0.00 0.00 0.00 93 1012.0
20260505191657 80 139 2.0 2.0 0.00 0.00 0.00 93 1012.0
20260505191158 80 121 3.0 3.0 0.00 0.00 0.00 92 1012.0
20260505190659 80 133 3.0 3.0 0.00 0.00 0.00 92 1012.0
20260505190157 80 141 2.0 2.0 0.00 0.00 0.00 92 1012.0
20260505185658 80 100 2.0 3.0 0.00 0.00 0.00 92 1012.0
20260505185157 81 114 2.0 2.0 0.00 0.00 0.00 91 1012.0
20260505184657 81 125 3.0 3.0 0.00 0.00 0.00 91 1012.0
20260505184157 81 101 2.0 3.0 0.00 0.00 0.00 91 1012.0
20260505183658 81 117 2.0 2.0 0.00 0.00 0.00 91 1012.0
20260505183157 81 118 3.0 3.0 0.00 0.00 0.00 90 1012.0
20260505182659 81 141 0.0 0.0 0.00 0.00 0.00 91 1012.0
20260505182158 82 164 1.0 2.0 0.00 0.00 0.00 90 1012.0
20260505181659 82 163 0.0 0.0 0.00 0.00 0.00 90 1012.0
20260505181157 82 178 1.0 1.0 0.00 0.00 0.00 90 1012.0
20260505180657 82 198 2.0 2.0 0.00 0.00 0.00 90 1012.0
20260505180158 82 137 1.0 1.0 0.00 0.00 0.00 90 1012.0
20260505175657 82 144 1.0 2.0 0.00 0.00 0.00 90 1012.0
20260505175158 83 131 2.0 2.0 0.00 0.00 0.00 89 1012.0
20260505174657 84 94 2.0 2.0 0.00 0.00 0.00 86 1012.0
20260505174158 84 188 2.0 2.0 0.00 0.00 0.00 87 1012.0
20260505173658 84 169 0.0 0.0 0.00 0.00 0.00 87 1012.0
20260505173157 84 183 1.0 1.0 0.00 0.00 0.00 87 1012.0
20260505172658 84 188 2.0 2.0 0.00 0.00 0.00 87 1012.0
20260505172157 84 170 0.0 0.0 0.00 0.00 0.00 86 1012.0
20260505171658 84 177 1.0 2.0 0.00 0.00 0.00 87 1012.0
20260505171159 84 190 1.0 1.0 0.00 0.00 0.00 87 1012.0
20260505170657 84 177 1.0 1.0 0.00 0.00 0.00 87 1012.0
20260505170158 83 181 1.0 1.0 0.00 0.00 0.00 87 1012.0
20260505165658 83 187 0.0 1.0 0.00 0.00 0.00 88 1012.0
20260505165158 83 164 0.0 0.0 0.00 0.00 0.00 88 1012.0
20260505164659 83 173 0.0 1.0 0.00 0.00 0.00 88 1012.0
20260505164157 84 176 0.0 1.0 0.00 0.00 0.00 87 1012.0
20260505163657 84 214 3.0 3.0 0.00 0.00 0.00 87 1012.0
20260505163158 84 203 0.0 0.0 0.00 0.00 0.00 87 1012.0
20260505162658 84 185 0.0 1.0 0.00 0.00 0.00 87 1012.0
20260505162158 84 186 2.0 2.0 0.00 0.00 0.00 87 1012.0
20260505161657 84 215 2.0 2.0 0.00 0.00 0.00 87 1012.0
20260505161157 84 247 4.0 5.0 0.00 0.00 0.00 87 1012.0
20260505160658 84 242 3.0 3.0 0.00 0.00 0.00 87 1012.0
20260505160159 84 225 3.0 3.0 0.00 0.00 0.00 87 1013.0
20260505153158 84 222 2.0 2.0 0.00 0.00 0.00 87 1013.0
20260505152657 84 203 0.0 0.0 0.00 0.00 0.00 87 1013.0
20260505152157 84 171 0.0 0.0 0.00 0.00 0.00 86 1013.0
20260505151658 84 168 1.0 2.0 0.00 0.00 0.00 86 1013.0
20260505151201 84 180 0.0 0.0 0.00 0.00 0.00 86 1013.0
20260505150657 84 171 0.0 0.0 0.00 0.00 0.00 86 1013.0
20260505150158 84 179 0.0 0.0 0.00 0.00 0.00 86 1012.0
20260505140159 85 239 3.0 3.0 0.00 0.00 0.00 84 1013.0
20260505130157 85 296 4.0 5.0 0.00 0.00 0.00 83 1012.0
20260505124657 85 171 1.0 2.0 0.00 0.00 0.00 82 1012.0
20260505124200 85 178 1.0 2.0 0.00 0.00 0.00 82 1012.0
20260505123657 85 277 3.0 5.0 0.00 0.00 0.00 81 1012.0
20260505123157 85 232 2.0 2.0 0.00 0.00 0.00 81 1012.0
20260505122657 85 229 3.0 5.0 0.00 0.00 0.00 81 1012.0
20260505122157 85 225 2.0 3.0 0.00 0.00 0.00 81 1012.0
20260505121658 85 285 4.0 5.0 0.00 0.00 0.00 81 1012.0
20260505121157 85 204 3.0 3.0 0.00 0.00 0.00 81 1012.0
20260505120657 85 280 5.0 7.0 0.00 0.00 0.00 81 1012.0
20260505120157 85 325 4.0 5.0 0.00 0.00 0.00 80 1012.0
20260505115658 85 287 3.0 3.0 0.00 0.00 0.00 80 1012.0
20260505115157 85 197 2.0 2.0 0.00 0.00 0.00 80 1012.0
20260505114657 85 225 4.0 5.0 0.00 0.00 0.00 80 1012.0
20260505114157 85 285 3.0 3.0 0.00 0.00 0.00 80 1012.0
20260505113657 86 280 5.0 6.0 0.00 0.00 0.00 79 1012.0
20260505113157 86 298 3.0 5.0 0.00 0.00 0.00 79 1012.0
20260505112657 86 204 2.0 2.0 0.00 0.00 0.00 78 1011.0
20260505112157 86 230 1.0 1.0 0.00 0.00 0.00 78 1011.0
20260505111657 86 147 1.0 2.0 0.00 0.00 0.00 78 1011.0
20260505111157 86 156 2.0 2.0 0.00 0.00 0.00 78 1011.0
20260505110657 86 216 3.0 5.0 0.00 0.00 0.00 77 1011.0
20260505110159 86 165 2.0 2.0 0.00 0.00 0.00 77 1011.0